TimeEDT,TemperatureF,Dew PointF,Humidity,Sea Level PressureIn,VisibilityMPH,Wind Direction,Wind SpeedMPH,Gust SpeedMPH,PrecipitationIn,Events,Conditions,WindDirDegrees,DateUTC
12:15 AM,44.6,42.8,93,29.89,2.5,North,6.9,-,0.04,Rain,Light Rain,10,2011-11-04 04:15:00
12:35 AM,42.8,42.8,100,29.87,1.8,Calm,Calm,-,0.04,,Overcast,0,2011-11-04 04:35:00
1:15 AM,44.6,42.8,93,29.81,4.0,NE,4.6,-,0.01,Rain,Light Rain,40,2011-11-04 05:15:00
1:35 AM,44.6,42.8,93,29.83,10.0,Calm,Calm,-,0.01,,Overcast,0,2011-11-04 05:35:00
2:15 AM,44.6,42.8,93,29.82,5.0,North,3.5,-,N/A,,Overcast,350,2011-11-04 06:15:00
2:35 AM,44.6,42.8,93,29.82,5.0,NE,3.5,-,N/A,,Overcast,50,2011-11-04 06:35:00
2:55 AM,44.6,42.8,93,29.81,5.0,NE,3.5,-,N/A,,Overcast,40,2011-11-04 06:55:00
3:15 AM,44.6,42.8,93,29.80,2.0,NNE,3.5,-,N/A,,Overcast,20,2011-11-04 07:15:00
3:35 AM,42.8,42.8,100,29.79,1.8,Calm,Calm,-,N/A,,Overcast,0,2011-11-04 07:35:00
3:55 AM,44.6,42.8,93,29.79,10.0,Calm,Calm,-,N/A,,Mostly Cloudy,0,2011-11-04 07:55:00
4:15 AM,42.8,41.0,93,29.79,0.5,North,3.5,-,N/A,Fog,Fog,350,2011-11-04 08:15:00
4:35 AM,42.8,42.8,100,29.79,2.0,North,4.6,-,N/A,,Overcast,350,2011-11-04 08:35:00
4:55 AM,44.6,42.8,93,29.80,5.0,North,3.5,-,N/A,,Overcast,360,2011-11-04 08:55:00
5:15 AM,44.6,42.8,93,29.79,10.0,NNE,3.5,-,N/A,,Overcast,30,2011-11-04 09:15:00
5:35 AM,44.6,42.8,93,29.80,10.0,NNE,4.6,-,N/A,,Overcast,20,2011-11-04 09:35:00
6:15 AM,44.6,42.8,93,29.81,10.0,North,3.5,-,N/A,,Drizzle,350,2011-11-04 10:15:00
6:35 AM,44.6,42.8,93,29.81,7.0,North,5.8,-,N/A,Rain,Heavy Rain,360,2011-11-04 10:35:00
6:55 AM,44.6,42.8,93,29.82,10.0,North,5.8,-,N/A,Rain,Light Rain,360,2011-11-04 10:55:00
7:55 AM,44.6,42.8,93,29.84,7.0,North,10.4,-,0.04,Rain,Rain,350,2011-11-04 11:55:00
8:15 AM,44.6,42.8,93,29.85,10.0,North,8.1,-,N/A,Rain,Rain,10,2011-11-04 12:15:00
8:35 AM,44.6,42.8,93,29.86,7.0,North,11.5,20.7,0.02,Rain,Rain,350,2011-11-04 12:35:00
8:55 AM,44.6,42.8,93,29.86,10.0,North,16.1,23.0,0.02,Rain,Light Rain,350,2011-11-04 12:55:00
9:15 AM,44.6,41.0,87,29.87,10.0,North,11.5,21.9,N/A,Rain,Light Rain,350,2011-11-04 13:15:00
9:35 AM,44.6,41.0,87,29.88,10.0,North,13.8,18.4,N/A,Rain,Light Rain,360,2011-11-04 13:35:00
9:55 AM,44.6,39.2,81,29.89,10.0,NNW,12.7,20.7,0.01,Rain,Rain,340,2011-11-04 13:55:00
10:15 AM,44.6,39.2,81,29.90,10.0,NNW,11.5,18.4,N/A,Rain,Light Rain,340,2011-11-04 14:15:00
10:35 AM,44.6,39.2,81,29.91,10.0,North,10.4,18.4,N/A,Rain,Light Rain,350,2011-11-04 14:35:00
10:55 AM,44.6,41.0,87,29.92,10.0,North,9.2,17.3,N/A,Rain,Light Rain,350,2011-11-04 14:55:00
11:35 AM,46.4,39.2,76,29.93,10.0,North,10.4,17.3,N/A,,Overcast,360,2011-11-04 15:35:00
11:55 AM,46.4,41.0,81,29.93,10.0,North,11.5,-,N/A,,Scattered Clouds,10,2011-11-04 15:55:00
12:15 PM,48.2,39.2,71,29.93,10.0,NNW,16.1,24.2,N/A,,Scattered Clouds,340,2011-11-04 16:15:00
12:35 PM,50.0,37.4,62,29.93,10.0,North,13.8,25.3,N/A,,Scattered Clouds,360,2011-11-04 16:35:00
12:55 PM,48.2,37.4,66,29.92,10.0,North,18.4,26.5,N/A,,Mostly Cloudy,360,2011-11-04 16:55:00
1:15 PM,48.2,37.4,66,29.91,10.0,North,19.6,28.8,N/A,,Overcast,360,2011-11-04 17:15:00
1:35 PM,48.2,37.4,66,29.92,10.0,North,16.1,25.3,N/A,,Overcast,360,2011-11-04 17:35:00
1:55 PM,48.2,37.4,66,29.93,10.0,North,13.8,31.1,N/A,,Mostly Cloudy,360,2011-11-04 17:55:00
2:15 PM,48.2,35.6,62,29.93,10.0,North,10.4,26.5,N/A,,Scattered Clouds,10,2011-11-04 18:15:00
2:35 PM,50.0,35.6,58,29.93,10.0,North,9.2,24.2,N/A,,Scattered Clouds,360,2011-11-04 18:35:00
2:55 PM,50.0,35.6,58,29.94,10.0,North,10.4,20.7,N/A,,Scattered Clouds,10,2011-11-04 18:55:00
3:15 PM,50.0,35.6,58,29.95,10.0,North,12.7,19.6,N/A,,Mostly Cloudy,350,2011-11-04 19:15:00
3:35 PM,50.0,35.6,58,29.96,10.0,North,9.2,16.1,N/A,,Overcast,10,2011-11-04 19:35:00
3:55 PM,51.8,35.6,54,29.97,10.0,North,8.1,-,N/A,,Scattered Clouds,10,2011-11-04 19:55:00
4:15 PM,51.8,35.6,54,29.97,10.0,North,8.1,-,N/A,,Scattered Clouds,10,2011-11-04 20:15:00
4:35 PM,51.8,35.6,54,29.98,10.0,NNW,6.9,-,N/A,,Mostly Cloudy,340,2011-11-04 20:35:00
4:55 PM,51.8,35.6,54,29.98,10.0,North,9.2,17.3,N/A,,Mostly Cloudy,360,2011-11-04 20:55:00
5:15 PM,51.8,35.6,54,29.99,10.0,North,11.5,20.7,N/A,,Scattered Clouds,360,2011-11-04 21:15:00
5:35 PM,51.8,35.6,54,30.00,10.0,NNW,11.5,-,N/A,,Scattered Clouds,340,2011-11-04 21:35:00
5:55 PM,51.8,35.6,54,30.00,10.0,NNW,10.4,19.6,N/A,,Scattered Clouds,340,2011-11-04 21:55:00
6:15 PM,50.0,35.6,58,30.02,10.0,North,10.4,26.5,N/A,,Clear,350,2011-11-04 22:15:00
6:35 PM,50.0,35.6,58,30.02,10.0,North,13.8,19.6,N/A,,Clear,350,2011-11-04 22:35:00
6:55 PM,48.2,35.6,62,30.04,10.0,North,12.7,20.7,N/A,,Clear,350,2011-11-04 22:55:00
7:15 PM,48.2,35.6,62,30.05,10.0,North,11.5,21.9,N/A,,Clear,360,2011-11-04 23:15:00
7:35 PM,46.4,35.6,66,30.06,10.0,North,11.5,17.3,N/A,,Clear,350,2011-11-04 23:35:00
7:55 PM,46.4,33.8,62,30.07,10.0,North,10.4,16.1,N/A,,Clear,350,2011-11-04 23:55:00
8:35 PM,44.6,33.8,66,30.09,10.0,North,8.1,-,N/A,,Clear,360,2011-11-05 00:35:00
8:55 PM,44.6,33.8,66,30.10,10.0,North,3.5,-,N/A,,Clear,10,2011-11-05 00:55:00
9:15 PM,44.6,33.8,66,30.11,10.0,NNW,11.5,-,N/A,,Clear,340,2011-11-05 01:15:00
9:35 PM,44.6,33.8,66,30.11,10.0,North,6.9,16.1,N/A,,Clear,10,2011-11-05 01:35:00
9:55 PM,44.6,33.8,66,30.13,10.0,North,4.6,-,N/A,,Clear,10,2011-11-05 01:55:00
10:15 PM,42.8,33.8,70,30.14,10.0,North,5.8,-,N/A,,Clear,350,2011-11-05 02:15:00
10:35 PM,42.8,33.8,70,30.14,10.0,North,8.1,-,N/A,,Clear,360,2011-11-05 02:35:00
10:55 PM,42.8,33.8,70,30.14,10.0,North,10.4,-,N/A,,Clear,360,2011-11-05 02:55:00
11:15 PM,42.8,33.8,70,30.14,10.0,North,5.8,-,N/A,,Clear,360,2011-11-05 03:15:00
11:35 PM,42.8,32.0,66,30.15,10.0,North,5.8,-,N/A,,Clear,360,2011-11-05 03:35:00
11:55 PM,42.8,32.0,66,30.14,10.0,North,8.1,-,N/A,,Clear,360,2011-11-05 03:55:00